DELTA 1 DEB

Satellite information

Favourite Embed

Satellite Type and Status

DEBRISIN ORBIT

Key statistics

Satellite DELTA 1 DEB at a glance.

Uptime

18816

Days in orbit

Revolutions

≈ 12.5

Per day

Orbit

SSO

Sun Synchronous Orbit

Inclination

101.8

Latest

Satellite identification and parameters

Extended collection of information and parameters for DELTA 1 DEB.

Object identification

Identified? True

Debris? True

Object name: DELTA 1 DEB

International designator: 1973-086CY

Object number (NORAD): 7134

Object ID (CCSDS): 7134

Country: UNITED STATES OF AMERICA (US)

Current information (Y/N): Y

RCS size: SMALL

Orbital parameters

Period: 114.938 minutes

Inclination: 101.843 deg

SMA: 7830.726 km

Apoapsis: 1457.708 km

Periapsis: 1447.475 km

RAAN: 264.0708 deg

Eccentricy: 0.0006534

Argument of periapsis: 306.2156 deg

Mean anomaly: 76.5067 deg

Mean motion: 12.52851762 rev/day

Mean motion (dot): 0.00000179 rev/day2

B* drag term: 0.0014184 1/REarth

Two-line elements (TLE)

Creation date: May 12, 2025, 7:41 p.m.

Reference frame: TEME

Reference center: EARTH

Epoch: May 12, 2025, 2:30 p.m. UTC

TLE line 0: 0 DELTA 1 DEB

TLE line 1: 1 07134U 73086CY 25132.60467437 .00000179 00000-0 14184-2 0 9996

TLE line 2: 2 07134 101.8430 264.0708 0006534 306.2156 76.5067 12.52851762349907

Live tracking on map

Real-time ground track for satellite DELTA 1 DEB.

In-orbit conjunctions

A list of the most updated potential collisions computed for object DELTA 1 DEB.

Target Orbit TCA Probability of collision Miss distance Type
COSMOS 1563 LEO 2024-11-01 18:20:21 0.0002700553 947.0 (m) PAYLOAD
COSMOS 2127 LEO 2024-08-30 02:52:37 0.0002824575 194.0 (m) PAYLOAD

Associated space launch

Meteorological satellite using radiometric imaging

DELTA 1 DEB was lifted into orbit during the mission ‘Delta 0300 | NOAA 3’, on board a Delta 0300 space rocket.

The launch took place on Nov. 6, 1973, 5:02 p.m. from Space Launch Complex 2W.

For more information about the launch, click the button.

Launch to space Delta 0300 | NOAA 3
Delta 0300 | NOAA 3

Agency: N/A

Status: Launch Successful

Launch date: Nov. 6, 1973, 5:02 p.m. UTC

Rocket: Delta 0300

Launch pad: Space Launch Complex 2W

Location: Vandenberg SFB, CA, USA

...

Latest news about this satellite

There are no fresh news available about this satellite. Check back as we update our databases every day.


Newsletter sign-up

Weekly statistics, charts and insights to help you stay on top of the space industry.